This is the latest recevied weather packets stored in our database for station/object OK2JCZ-6. If no packets are shown the sender has not sent any weather packets the latest 10 day(s).
| Time | Temp. | Humidity | Pressure | Rain* | Wind** | Luminosity | Snow |
|---|---|---|---|---|---|---|---|
| 1788700105 | 22.22° C | 28% | 1026.1 hPa | 0 mm | - | - | - |
| 1788699805 | 22.22° C | 28% | 1026.1 hPa | 0 mm | - | - | - |
| 1788699505 | 22.22° C | 28% | 1026.1 hPa | 0 mm | - | - | - |
| 1788699205 | 22.22° C | 28% | 1026 hPa | 0 mm | - | - | - |
| 1788698905 | 22.22° C | 29% | 1026.2 hPa | 0 mm | - | - | - |
| 1788698605 | 22.22° C | 28% | 1026.2 hPa | 0 mm | - | - | - |
| 1788697705 | 22.22° C | 28% | 1026.1 hPa | 0 mm | - | - | - |
| 1788697405 | 22.22° C | 28% | 1026.2 hPa | 0 mm | - | - | - |
| 1788697105 | 21.67° C | 28% | 1026.3 hPa | 0 mm | - | - | - |
| 1788696805 | 21.67° C | 28% | 1026.3 hPa | 0 mm | - | - | - |
| 1788696205 | 21.67° C | 28% | 1026.3 hPa | 0 mm | - | - | - |
| 1788695905 | 20.56° C | 29% | 1026.4 hPa | 0 mm | - | - | - |
| 1788695605 | 20.56° C | 29% | 1026.4 hPa | 0 mm | - | - | - |
| 1788695305 | 21.67° C | 29% | 1026.4 hPa | 0 mm | - | - | - |
| 1788695005 | 21.67° C | 28% | 1026.5 hPa | 0 mm | - | - | - |
| 1788694405 | 21.67° C | 29% | 1026.4 hPa | 0 mm | - | - | - |
| 1788693205 | 21.67° C | 29% | 1026.5 hPa | 0 mm | - | - | - |
| 1788692905 | 21.67° C | 29% | 1026.4 hPa | 0 mm | - | - | - |
| 1788692305 | 20.56° C | 31% | 1026.5 hPa | 0 mm | - | - | - |
| 1788692005 | 20.56° C | 31% | 1026.6 hPa | 0 mm | - | - | - |
| 1788691705 | 21.11° C | 32% | 1026.6 hPa | 0 mm | - | - | - |
| 1788691105 | 21.67° C | 32% | 1026.7 hPa | 0 mm | - | - | - |
| 1788690805 | 21.67° C | 31% | 1026.7 hPa | 0 mm | - | - | - |
| 1788690505 | 21.11° C | 31% | 1026.7 hPa | 0 mm | - | - | - |
| 1788689905 | 21.11° C | 32% | 1026.9 hPa | 0 mm | - | - | - |
* Rain latest hour (hover to see other rain measurements)
** Current wind speed in m/s (hover to see current wind gust speed)